Time,TemperatureF,DewpointF,PressureIn,WindDirection,WindDirectionDegrees,WindSpeedMPH,WindSpeedGustMPH,Humidity,HourlyPrecipIn,Conditions,Clouds,dailyrainin,SoftwareType,DateUTC
2013-04-26 00:02:00,44.0,37.0,30.38,East,95,0.0,0.0,77,0.00,,,0.02,,2013-04-26 04:02:00,
2013-04-26 00:12:00,44.0,37.0,30.38,East,95,0.0,0.0,77,0.00,,,0.02,,2013-04-26 04:12:00,
2013-04-26 00:23:00,45.0,38.0,30.39,East,95,0.0,1.0,75,0.00,,,0.02,,2013-04-26 04:23:00,
2013-04-26 00:32:00,45.0,37.0,30.39,NNE,28,0.0,2.0,72,0.00,,,0.02,,2013-04-26 04:32:00,
2013-04-26 00:43:00,45.0,37.0,30.39,NNE,28,0.0,2.0,72,0.00,,,0.02,,2013-04-26 04:43:00,
2013-04-26 00:53:00,45.0,37.0,30.40,NNE,28,0.0,1.0,73,0.00,,,0.02,,2013-04-26 04:53:00,
2013-04-26 01:02:00,44.0,36.0,30.39,NNE,28,0.0,0.0,74,0.00,,,0.02,,2013-04-26 05:02:00,
2013-04-26 01:12:00,44.0,36.0,30.39,NNE,28,0.0,0.0,74,0.00,,,0.02,,2013-04-26 05:12:00,
2013-04-26 01:22:00,44.0,37.0,30.39,NNE,28,0.0,0.0,77,0.00,,,0.02,,2013-04-26 05:22:00,
2013-04-26 01:32:00,43.0,36.0,30.39,NNE,28,0.0,0.0,77,0.00,,,0.02,,2013-04-26 05:32:00,
2013-04-26 01:42:00,43.0,36.0,30.39,NNE,28,0.0,0.0,77,0.00,,,0.02,,2013-04-26 05:42:00,
2013-04-26 01:52:00,43.0,36.0,30.39,NNE,28,0.0,0.0,77,0.00,,,0.02,,2013-04-26 05:52:00,
2013-04-26 02:02:00,43.0,36.0,30.39,NNE,28,0.0,0.0,77,0.00,,,0.02,,2013-04-26 06:02:00,
2013-04-26 02:11:00,43.0,36.0,30.39,NNE,28,0.0,0.0,77,0.00,,,0.02,,2013-04-26 06:11:00,
2013-04-26 02:22:00,42.0,36.0,30.39,NNE,28,0.0,1.0,80,0.00,,,0.02,,2013-04-26 06:22:00,
2013-04-26 02:32:00,42.0,37.0,30.40,NNE,28,0.0,1.0,82,0.00,,,0.02,,2013-04-26 06:32:00,
2013-04-26 02:42:00,42.0,37.0,30.40,NNE,28,0.0,1.0,82,0.00,,,0.02,,2013-04-26 06:42:00,
2013-04-26 02:52:00,42.0,37.0,30.40,NNE,28,0.0,0.0,81,0.00,,,0.02,,2013-04-26 06:52:00,
2013-04-26 03:01:00,42.0,37.0,30.40,NNE,28,0.0,0.0,81,0.00,,,0.02,,2013-04-26 07:01:00,
2013-04-26 03:11:00,42.0,37.0,30.40,NNE,28,0.0,0.0,81,0.00,,,0.02,,2013-04-26 07:11:00,
2013-04-26 03:22:00,41.0,36.0,30.40,NNE,28,0.0,0.0,82,0.00,,,0.02,,2013-04-26 07:22:00,
2013-04-26 03:31:00,41.0,36.0,30.40,NNE,28,0.0,0.0,82,0.00,,,0.02,,2013-04-26 07:31:00,
2013-04-26 03:42:00,41.0,36.0,30.40,NNE,28,0.0,0.0,82,0.00,,,0.02,,2013-04-26 07:42:00,
2013-04-26 03:52:00,41.0,36.0,30.41,NNE,28,0.0,0.0,83,0.00,,,0.02,,2013-04-26 07:52:00,
2013-04-26 04:02:00,41.0,36.0,30.40,NNE,28,0.0,0.0,82,0.00,,,0.02,,2013-04-26 08:02:00,
2013-04-26 04:11:00,41.0,36.0,30.40,NNE,28,0.0,0.0,82,0.00,,,0.02,,2013-04-26 08:11:00,
2013-04-26 04:22:00,40.0,35.0,30.41,NNE,28,0.0,0.0,83,0.00,,,0.02,,2013-04-26 08:22:00,
2013-04-26 04:32:00,39.0,35.0,30.42,NNE,28,0.0,0.0,84,0.00,,,0.02,,2013-04-26 08:32:00,
2013-04-26 04:42:00,39.0,35.0,30.42,NNE,28,0.0,0.0,84,0.00,,,0.02,,2013-04-26 08:42:00,
2013-04-26 04:52:00,39.0,35.0,30.42,NNE,28,0.0,0.0,85,0.00,,,0.02,,2013-04-26 08:52:00,
2013-04-26 05:01:00,39.0,35.0,30.42,NNE,28,0.0,0.0,85,0.00,,,0.02,,2013-04-26 09:01:00,
2013-04-26 05:11:00,39.0,35.0,30.42,NNE,28,0.0,0.0,85,0.00,,,0.02,,2013-04-26 09:11:00,
2013-04-26 05:22:00,38.0,34.0,30.42,NNE,28,0.0,1.0,86,0.00,,,0.02,,2013-04-26 09:22:00,
2013-04-26 05:33:00,37.0,34.0,30.43,NNE,28,0.0,1.0,88,0.00,,,0.02,,2013-04-26 09:33:00,
2013-04-26 05:43:00,37.0,34.0,30.43,NNE,28,0.0,1.0,88,0.00,,,0.02,,2013-04-26 09:43:00,
2013-04-26 05:53:00,37.0,34.0,30.43,NNE,28,0.0,0.0,89,0.00,,,0.02,,2013-04-26 09:53:00,
2013-04-26 06:03:00,37.0,34.0,30.43,NNE,28,0.0,0.0,89,0.00,,,0.02,,2013-04-26 10:03:00,
2013-04-26 06:12:00,37.0,34.0,30.43,NNE,28,0.0,0.0,89,0.00,,,0.02,,2013-04-26 10:12:00,
2013-04-26 06:23:00,36.0,33.0,30.44,NNE,28,0.0,1.0,90,0.00,,,0.01,,2013-04-26 10:23:00,
2013-04-26 06:33:00,36.0,33.0,30.45,NNE,28,0.0,0.0,90,0.00,,,0.01,,2013-04-26 10:33:00,
2013-04-26 06:42:00,36.0,33.0,30.45,NNE,28,0.0,0.0,90,0.00,,,0.01,,2013-04-26 10:42:00,
2013-04-26 06:52:00,36.0,34.0,30.45,NNE,28,0.0,0.0,91,0.00,,,0.01,,2013-04-26 10:52:00,
2013-04-26 07:02:00,36.0,34.0,30.45,NNE,28,0.0,1.0,91,0.00,,,0.01,,2013-04-26 11:02:00,
2013-04-26 07:11:00,36.0,34.0,30.45,NNE,28,0.0,1.0,91,0.00,,,0.01,,2013-04-26 11:11:00,
2013-04-26 07:22:00,36.0,34.0,30.46,NNE,28,0.0,1.0,91,0.00,,,0.01,,2013-04-26 11:22:00,
2013-04-26 07:32:00,37.0,35.0,30.47,NNE,28,0.0,0.0,92,0.00,,,0.01,,2013-04-26 11:32:00,
2013-04-26 07:42:00,37.0,35.0,30.47,NNE,28,0.0,0.0,92,0.00,,,0.01,,2013-04-26 11:42:00,
2013-04-26 07:52:00,38.0,36.0,30.47,NNE,28,0.0,0.0,92,0.00,,,0.01,,2013-04-26 11:52:00,
2013-04-26 08:01:00,39.0,37.0,30.48,NNE,28,0.0,0.0,92,0.00,,,0.01,,2013-04-26 12:01:00,
2013-04-26 08:11:00,39.0,37.0,30.48,NNE,28,0.0,0.0,92,0.00,,,0.01,,2013-04-26 12:11:00,
2013-04-26 08:21:00,40.0,38.0,30.48,NNE,28,0.0,1.0,91,0.00,,,0.01,,2013-04-26 12:21:00,
2013-04-26 08:32:00,42.0,38.0,30.49,NNE,28,0.0,1.0,85,0.00,,,0.01,,2013-04-26 12:32:00,
2013-04-26 08:42:00,42.0,38.0,30.49,NNE,28,0.0,1.0,85,0.00,,,0.01,,2013-04-26 12:42:00,
2013-04-26 08:52:00,44.0,39.0,30.49,NNE,30,1.0,3.0,82,0.00,,,0.01,,2013-04-26 12:52:00,
2013-04-26 09:01:00,45.0,38.0,30.49,WNW,290,0.0,3.0,75,0.00,,,0.01,,2013-04-26 13:01:00,
2013-04-26 09:11:00,45.0,38.0,30.49,WNW,290,0.0,3.0,75,0.00,,,0.01,,2013-04-26 13:11:00,
2013-04-26 09:22:00,46.0,38.0,30.49,ENE,74,1.0,3.0,74,0.00,,,0.01,,2013-04-26 13:22:00,
2013-04-26 09:32:00,46.0,36.0,30.49,East,82,0.0,4.0,69,0.00,,,0.01,,2013-04-26 13:32:00,
2013-04-26 09:42:00,46.0,36.0,30.49,East,82,0.0,4.0,69,0.00,,,0.01,,2013-04-26 13:42:00,
2013-04-26 09:52:00,48.0,38.0,30.50,NE,40,1.0,3.0,67,0.00,,,0.01,,2013-04-26 13:52:00,
2013-04-26 10:01:00,49.0,38.0,30.50,ENE,65,1.0,6.0,66,0.00,,,0.01,,2013-04-26 14:01:00,
2013-04-26 10:11:00,49.0,38.0,30.50,ENE,65,1.0,6.0,66,0.00,,,0.01,,2013-04-26 14:11:00,
2013-04-26 10:21:00,48.0,35.0,30.49,SW,229,1.0,5.0,61,0.00,,,0.01,,2013-04-26 14:21:00,
2013-04-26 10:32:00,50.0,34.0,30.50,SSE,165,2.0,5.0,53,0.00,,,0.01,,2013-04-26 14:32:00,
2013-04-26 10:42:00,50.0,34.0,30.50,SSE,165,2.0,5.0,53,0.00,,,0.01,,2013-04-26 14:42:00,
2013-04-26 10:52:00,50.0,34.0,30.50,WNW,292,1.0,4.0,54,0.00,,,0.01,,2013-04-26 14:52:00,
2013-04-26 11:01:00,49.0,34.0,30.50,ENE,78,1.0,4.0,55,0.00,,,0.01,,2013-04-26 15:01:00,
2013-04-26 11:12:00,49.0,34.0,30.50,ENE,78,1.0,4.0,55,0.00,,,0.01,,2013-04-26 15:12:00,
2013-04-26 11:21:00,49.0,32.0,30.49,NNW,342,1.0,3.0,52,0.00,,,0.01,,2013-04-26 15:21:00,
2013-04-26 11:33:00,49.0,34.0,30.50,NW,304,0.0,3.0,57,0.00,,,0.01,,2013-04-26 15:33:00,
2013-04-26 11:43:00,49.0,34.0,30.50,NW,304,0.0,3.0,57,0.00,,,0.01,,2013-04-26 15:43:00,
2013-04-26 11:53:00,50.0,33.0,30.49,WSW,254,0.0,4.0,51,0.00,,,0.01,,2013-04-26 15:53:00,
2013-04-26 12:03:00,52.0,34.0,30.49,WSW,256,4.0,7.0,50,0.00,,,0.01,,2013-04-26 16:03:00,
2013-04-26 12:12:00,52.0,34.0,30.49,WSW,256,4.0,7.0,50,0.00,,,0.01,,2013-04-26 16:12:00,
2013-04-26 12:23:00,51.0,30.0,30.49,SSE,157,0.0,5.0,45,0.00,,,0.01,,2013-04-26 16:23:00,
2013-04-26 12:33:00,52.0,32.0,30.49,South,190,0.0,4.0,47,0.00,,,0.01,,2013-04-26 16:33:00,
2013-04-26 12:42:00,52.0,32.0,30.49,South,190,0.0,4.0,47,0.00,,,0.01,,2013-04-26 16:42:00,
2013-04-26 12:53:00,54.0,33.0,30.49,SW,216,3.0,5.0,44,0.00,,,0.01,,2013-04-26 16:53:00,
2013-04-26 13:02:00,54.0,32.0,30.49,SSE,160,1.0,5.0,43,0.00,,,0.01,,2013-04-26 17:02:00,
2013-04-26 13:12:00,54.0,32.0,30.49,SSE,160,1.0,5.0,43,0.00,,,0.01,,2013-04-26 17:12:00,
2013-04-26 13:22:00,54.0,31.0,30.48,SW,215,1.0,4.0,41,0.00,,,0.00,,2013-04-26 17:22:00,
2013-04-26 13:32:00,54.0,35.0,30.47,SE,126,1.0,5.0,48,0.00,,,0.00,,2013-04-26 17:32:00,
2013-04-26 13:42:00,54.0,35.0,30.47,SE,126,1.0,5.0,48,0.00,,,0.00,,2013-04-26 17:42:00,
2013-04-26 13:52:00,57.0,34.0,30.46,ESE,117,3.0,6.0,41,0.00,,,0.00,,2013-04-26 17:52:00,
2013-04-26 14:02:00,56.0,31.0,30.47,SE,127,2.0,5.0,38,0.00,,,0.00,,2013-04-26 18:02:00,
2013-04-26 14:12:00,57.0,30.0,30.46,NE,53,3.0,9.0,36,0.00,,,0.00,,2013-04-26 18:12:00,
2013-04-26 14:22:00,57.0,30.0,30.46,NE,53,3.0,9.0,36,0.00,,,0.00,,2013-04-26 18:22:00,
2013-04-26 14:33:00,56.0,30.0,30.46,SW,215,2.0,6.0,37,0.00,,,0.00,,2013-04-26 18:33:00,
2013-04-26 14:42:00,56.0,30.0,30.46,SW,215,2.0,6.0,37,0.00,,,0.00,,2013-04-26 18:42:00,
2013-04-26 14:52:00,57.0,33.0,30.45,SE,142,1.0,5.0,40,0.00,,,0.00,,2013-04-26 18:52:00,
2013-04-26 15:01:00,57.0,34.0,30.46,SSE,155,2.0,8.0,42,0.00,,,0.00,,2013-04-26 19:01:00,
2013-04-26 15:12:00,57.0,34.0,30.46,SSE,155,2.0,8.0,42,0.00,,,0.00,,2013-04-26 19:12:00,
2013-04-26 15:22:00,58.0,35.0,30.45,SW,234,4.0,7.0,42,0.00,,,0.00,,2013-04-26 19:22:00,
2013-04-26 15:32:00,59.0,31.0,30.45,East,90,0.0,5.0,35,0.00,,,0.00,,2013-04-26 19:32:00,
2013-04-26 15:42:00,59.0,31.0,30.45,East,90,0.0,5.0,35,0.00,,,0.00,,2013-04-26 19:42:00,
2013-04-26 15:52:00,58.0,31.0,30.44,WNW,283,2.0,6.0,35,0.00,,,0.00,,2013-04-26 19:52:00,
2013-04-26 16:02:00,58.0,31.0,30.44,WNW,293,1.0,6.0,36,0.00,,,0.00,,2013-04-26 20:02:00,
2013-04-26 16:11:00,59.0,30.0,30.44,ESE,121,1.0,5.0,33,0.00,,,0.00,,2013-04-26 20:11:00,
2013-04-26 16:22:00,59.0,30.0,30.44,ESE,121,1.0,5.0,33,0.00,,,0.00,,2013-04-26 20:22:00,
2013-04-26 16:32:00,59.0,34.0,30.42,NE,44,1.0,5.0,39,0.00,,,0.00,,2013-04-26 20:32:00,
2013-04-26 16:42:00,59.0,34.0,30.42,NE,44,1.0,5.0,39,0.00,,,0.00,,2013-04-26 20:42:00,
2013-04-26 16:52:00,60.0,32.0,30.42,NE,50,3.0,5.0,35,0.00,,,0.00,,2013-04-26 20:52:00,
2013-04-26 17:02:00,60.0,34.0,30.42,NE,54,1.0,4.0,38,0.00,,,0.00,,2013-04-26 21:02:00,
2013-04-26 17:11:00,60.0,34.0,30.42,NE,54,1.0,4.0,38,0.00,,,0.00,,2013-04-26 21:11:00,
2013-04-26 17:22:00,58.0,31.0,30.41,West,275,3.0,5.0,36,0.00,,,0.00,,2013-04-26 21:22:00,
2013-04-26 17:33:00,58.0,33.0,30.40,WNW,291,2.0,5.0,38,0.00,,,0.00,,2013-04-26 21:33:00,
2013-04-26 17:42:00,58.0,33.0,30.40,WNW,291,2.0,5.0,38,0.00,,,0.00,,2013-04-26 21:42:00,
2013-04-26 17:53:00,58.0,32.0,30.40,WNW,290,1.0,4.0,37,0.00,,,0.00,,2013-04-26 21:53:00,
2013-04-26 18:02:00,58.0,31.0,30.40,North,350,0.0,4.0,36,0.00,,,0.00,,2013-04-26 22:02:00,
2013-04-26 18:12:00,58.0,31.0,30.40,North,350,0.0,4.0,36,0.00,,,0.00,,2013-04-26 22:12:00,
2013-04-26 18:23:00,58.0,31.0,30.40,East,80,1.0,3.0,36,0.00,,,0.00,,2013-04-26 22:23:00,
2013-04-26 18:33:00,58.0,32.0,30.40,East,82,1.0,4.0,37,0.00,,,0.00,,2013-04-26 22:33:00,
2013-04-26 18:42:00,58.0,32.0,30.40,East,82,1.0,4.0,37,0.00,,,0.00,,2013-04-26 22:42:00,
2013-04-26 18:52:00,58.0,31.0,30.40,East,82,0.0,2.0,35,0.00,,,0.00,,2013-04-26 22:52:00,
2013-04-26 19:02:00,58.0,33.0,30.40,East,82,0.0,2.0,39,0.00,,,0.00,,2013-04-26 23:02:00,
2013-04-26 19:12:00,58.0,33.0,30.40,East,82,0.0,2.0,39,0.00,,,0.00,,2013-04-26 23:12:00,
2013-04-26 19:21:00,57.0,32.0,30.41,East,82,0.0,1.0,38,0.00,,,0.00,,2013-04-26 23:21:00,
2013-04-26 19:32:00,57.0,32.0,30.41,East,82,0.0,0.0,39,0.00,,,0.00,,2013-04-26 23:32:00,
2013-04-26 19:42:00,57.0,32.0,30.41,East,82,0.0,0.0,39,0.00,,,0.00,,2013-04-26 23:42:00,
2013-04-26 19:52:00,56.0,31.0,30.40,East,82,0.0,1.0,39,0.00,,,0.00,,2013-04-26 23:52:00,
2013-04-26 20:01:00,55.0,35.0,30.41,East,82,0.0,1.0,46,0.00,,,0.00,,2013-04-27 00:01:00,
2013-04-26 20:11:00,55.0,35.0,30.41,East,82,0.0,1.0,46,0.00,,,0.00,,2013-04-27 00:11:00,
2013-04-26 20:21:00,52.0,35.0,30.41,East,82,0.0,1.0,52,0.00,,,0.00,,2013-04-27 00:21:00,
2013-04-26 20:32:00,51.0,35.0,30.41,East,82,0.0,1.0,55,0.00,,,0.00,,2013-04-27 00:32:00,
2013-04-26 20:42:00,51.0,35.0,30.41,East,82,0.0,1.0,55,0.00,,,0.00,,2013-04-27 00:42:00,
2013-04-26 20:52:00,49.0,34.0,30.42,East,82,0.0,1.0,56,0.00,,,0.00,,2013-04-27 00:52:00,
2013-04-26 21:01:00,49.0,34.0,30.42,East,82,0.0,1.0,57,0.00,,,0.00,,2013-04-27 01:01:00,
2013-04-26 21:12:00,49.0,34.0,30.42,East,82,0.0,1.0,57,0.00,,,0.00,,2013-04-27 01:12:00,
2013-04-26 21:21:00,48.0,34.0,30.42,East,82,0.0,1.0,58,0.00,,,0.00,,2013-04-27 01:21:00,
2013-04-26 21:32:00,47.0,33.0,30.42,East,82,0.0,1.0,58,0.00,,,0.00,,2013-04-27 01:32:00,
2013-04-26 21:42:00,47.0,33.0,30.42,East,82,0.0,1.0,58,0.00,,,0.00,,2013-04-27 01:42:00,
2013-04-26 21:52:00,48.0,34.0,30.42,East,82,0.0,1.0,57,0.00,,,0.00,,2013-04-27 01:52:00,
2013-04-26 22:02:00,47.0,34.0,30.43,East,83,0.0,1.0,60,0.00,,,0.00,,2013-04-27 02:02:00,
2013-04-26 22:11:00,47.0,34.0,30.43,East,83,0.0,1.0,60,0.00,,,0.00,,2013-04-27 02:11:00,
2013-04-26 22:22:00,46.0,33.0,30.43,East,83,0.0,1.0,61,0.00,,,0.00,,2013-04-27 02:22:00,
2013-04-26 22:32:00,46.0,32.0,30.43,East,83,0.0,2.0,58,0.00,,,0.00,,2013-04-27 02:32:00,
2013-04-26 22:42:00,46.0,32.0,30.43,East,83,0.0,2.0,58,0.00,,,0.00,,2013-04-27 02:42:00,
2013-04-26 22:52:00,45.0,33.0,30.43,East,83,0.0,1.0,62,0.00,,,0.00,,2013-04-27 02:52:00,
2013-04-26 23:02:00,45.0,33.0,30.43,East,83,0.0,1.0,62,0.00,,,0.00,,2013-04-27 03:02:00,
2013-04-26 23:11:00,45.0,33.0,30.43,East,83,0.0,1.0,62,0.00,,,0.00,,2013-04-27 03:11:00,
2013-04-26 23:22:00,44.0,32.0,30.43,East,83,0.0,0.0,63,0.00,,,0.00,,2013-04-27 03:22:00,
2013-04-26 23:33:00,44.0,34.0,30.43,East,83,1.0,1.0,67,0.00,,,0.00,,2013-04-27 03:33:00,
2013-04-26 23:43:00,44.0,34.0,30.43,East,83,1.0,1.0,67,0.00,,,0.00,,2013-04-27 03:43:00,
2013-04-26 23:53:00,43.0,33.0,30.43,East,83,0.0,2.0,68,0.00,,,0.00,,2013-04-27 03:53:00,